Weather History for Kecskemet, Hungary

Change the Weather History Date:

Monday, March 25, 2013

  Actual Average (LHBP) Record (LHBP)
Temperature  
Mean Temperature 29 °F -  
Max Temperature 32 °F 52 °F 69 °F (2012)
Min Temperature 26 °F 33 °F 26 °F (1998)
Degree Days  
Heating Degree Days 36    
Moisture  
Dew Point 19 °F    
Average Humidity 69    
Maximum Humidity 100    
Minimum Humidity 47    
Precipitation  
Precipitation 0.00 in - - ()
Sea Level Pressure  
Sea Level Pressure 29.88 in    
Wind  
Wind Speed 13 mph ()    
Max Wind Speed 18 mph    
Max Gust Speed 27 mph    
Visibility 3.0 miles    
Events Snow    
Averages and records for this station are not official NWS values.
T = Trace of Precipitation, MM = Missing Value Source: Averaged Metar Reports

Daily Weather History Graph

Daily Weather History Graph

Search for Another Location

Airport:

Trip Planner

Search our weather history database for the weather conditions in past years. The results will help you decide how hot, cold, wet, or windy it might be!

Date:

Astronomy

Mar. 25, 2013 Rise Set
Actual Time 5:34 AM CET 6:00 PM CET
Civil Twilight 5:03 AM CET 6:31 PM CET
Nautical Twilight 4:27 AM CET 7:07 PM CET
Astronomical Twilight 3:50 AM CET 7:44 PM CET
Moon 4:08 PM CET (3/25) 4:14 AM CET (3/25)
Length of Visible Light 13h 27m
Length of Day
12h 26m
Waxing Gibbous, 95% of the Moon is Illuminated
Mar 25
Waxing Gibbous
Mar 27
Full
Apr 3
Last Quarter
Apr 10
New
Apr 18
First Quarter

Hourly Weather History & Observations

Time (CET) Temp. Windchill Dew Point Humidity Pressure Visibility Wind Dir Wind Speed Gust Speed Precip Events Conditions
12:15 AM 28.4 °F 17.6 °F 12.2 °F 51% 30.06 in - NE 13.4 mph - N/A   Clear
12:45 AM 28.4 °F 17.6 °F 12.2 °F 51% 30.06 in - NE 13.4 mph - N/A   Clear
1:15 AM 28.4 °F 17.6 °F 12.2 °F 51% 30.06 in - NE 13.4 mph - N/A   Clear
1:45 AM 26.6 °F 15.3 °F 14.0 °F 59% 30.04 in - NE 13.4 mph - N/A   Clear
2:15 AM 26.6 °F 17.7 °F 12.2 °F 55% 30.04 in - NE 8.9 mph - N/A   Clear
2:45 AM 26.6 °F 16.4 °F 12.2 °F 55% 30.01 in - NE 11.2 mph - N/A   Clear
3:15 AM 26.6 °F 15.3 °F 10.4 °F 51% 30.01 in - NE 13.4 mph - N/A   Clear
3:45 AM 26.6 °F 15.3 °F 10.4 °F 51% 30.01 in - NE 13.4 mph - N/A   Clear
4:15 AM 26.6 °F 15.3 °F 10.4 °F 51% 30.01 in - NE 13.4 mph 24.6 mph N/A   Clear
4:45 AM 26.6 °F 14.4 °F 10.4 °F 51% 29.98 in 6.2 mi NE 15.7 mph - N/A   Overcast
5:15 AM 26.6 °F 15.3 °F 12.2 °F 55% 29.98 in 6.2 mi NE 13.4 mph - N/A   Overcast
5:45 AM - - - N/A% - 5.0 mi NE 11.2 mph - N/A   Unknown
6:15 AM 28.4 °F 18.7 °F 12.2 °F 51% 29.98 in 6.2 mi NE 11.2 mph - N/A   Overcast
6:45 AM 28.4 °F 18.7 °F 12.2 °F 51% 29.98 in - NE 11.2 mph - N/A   Clear
7:15 AM 28.4 °F 16.7 °F 10.4 °F 47% 29.98 in - ENE 15.7 mph - N/A   Clear
7:16 AM 28.4 °F 17.6 °F 10.4 °F 47% 29.98 in - ENE 13.4 mph 26.8 mph N/A   Clear
7:45 AM 28.4 °F 17.6 °F 10.4 °F 47% 29.98 in - ENE 13.4 mph - N/A   Clear
8:15 AM 28.4 °F 15.9 °F 12.2 °F 51% 29.98 in - ENE 17.9 mph - N/A   Clear
8:45 AM - - - N/A% - 6.2 mi ENE 17.9 mph - N/A   Overcast
9:15 AM 30.2 °F 18.3 °F 14.0 °F 51% 29.95 in 6.2 mi NE 17.9 mph - N/A   Overcast
9:45 AM 30.2 °F 18.3 °F 12.2 °F 47% 29.95 in 6.2 mi ENE 17.9 mph - N/A   Overcast
10:13 AM 30.2 °F 19.1 °F 12.2 °F 47% 29.92 in 6.2 mi ENE 15.7 mph 26.8 mph N/A   Overcast
10:15 AM 30.2 °F 18.3 °F 12.2 °F 47% 29.92 in 6.2 mi ENE 17.9 mph - N/A   Overcast
10:45 AM 30.2 °F 18.3 °F 14.0 °F 51% 29.89 in 6.2 mi ENE 17.9 mph - N/A   Overcast
11:15 AM 32.0 °F 21.4 °F 14.0 °F 48% 29.89 in 6.2 mi NE 15.7 mph - N/A   Overcast
11:45 AM - - - N/A% - 6.2 mi ENE 15.7 mph 26.8 mph N/A   Overcast
12:15 PM 32.0 °F 22.2 °F 14.0 °F 48% 29.86 in 6.2 mi ENE 13.4 mph 24.6 mph N/A Snow Light Snow
12:45 PM - - - N/A% - 3.7 mi ENE 15.7 mph 26.8 mph N/A   Unknown
1:01 PM 30.2 °F 19.9 °F 19.4 °F 64% 29.86 in 3.1 mi ENE 13.4 mph - N/A Snow Snow
1:07 PM 30.2 °F 19.9 °F 21.2 °F 69% 29.86 in 1.9 mi NE 13.4 mph - N/A Snow Snow
1:15 PM 30.2 °F 19.9 °F 21.2 °F 69% 29.86 in 0.9 mi NE 13.4 mph - N/A Snow Snow
1:45 PM 30.2 °F 19.9 °F 24.8 °F 80% 29.86 in 0.9 mi NE 13.4 mph - N/A Snow Snow
2:15 PM 28.4 °F 17.6 °F 24.8 °F 86% 29.83 in 0.9 mi NE 13.4 mph - N/A Snow Snow
2:45 PM - - - N/A% - 1.9 mi ENE 15.7 mph - N/A   Overcast
2:55 PM 28.4 °F 17.6 °F 26.6 °F 93% 29.80 in 0.5 mi NE 13.4 mph - N/A Snow Snow
3:10 PM - - - N/A% - 3.7 mi ENE 15.7 mph 26.8 mph N/A   Unknown
3:15 PM 28.4 °F 17.6 °F 26.6 °F 93% 29.80 in 0.5 mi NE 13.4 mph - N/A Snow Snow
3:45 PM - - - N/A% - 3.7 mi ENE 15.7 mph 26.8 mph N/A   Unknown
4:15 PM 28.4 °F 17.6 °F 28.4 °F 100% 29.77 in 0.4 mi NE 13.4 mph - N/A Snow Snow
4:45 PM 28.4 °F 17.6 °F 28.4 °F 100% 29.77 in 0.4 mi NE 13.4 mph - N/A Snow Snow
5:15 PM 30.2 °F 18.3 °F 28.4 °F 93% 29.74 in 0.4 mi NE 17.9 mph - N/A Snow Snow
5:45 PM - - - N/A% - 3.7 mi ENE 13.4 mph 26.8 mph N/A   Unknown
6:15 PM 30.2 °F 19.1 °F 30.2 °F 100% 29.74 in 0.4 mi NE 15.7 mph - N/A Snow Snow
6:45 PM 30.2 °F 19.1 °F 30.2 °F 100% 29.74 in 0.5 mi NE 15.7 mph - N/A Snow Snow
7:15 PM 30.2 °F 19.1 °F 28.4 °F 93% 29.74 in 0.5 mi NE 15.7 mph - N/A Snow Snow
7:45 PM 30.2 °F 18.3 °F 28.4 °F 93% 29.74 in 0.5 mi NE 17.9 mph - N/A Snow Snow
8:15 PM 30.2 °F 18.3 °F 30.2 °F 100% 29.71 in 0.6 mi NE 17.9 mph - N/A Snow Snow
8:45 PM - - - N/A% - 3.7 mi ENE 15.7 mph 26.8 mph N/A   Unknown
9:15 PM 30.2 °F 18.3 °F 28.4 °F 93% 29.71 in 1.2 mi NE 17.9 mph - N/A Snow Snow
9:45 PM 30.2 °F 18.3 °F 28.4 °F 93% 29.71 in 0.9 mi NE 17.9 mph - N/A Snow Snow
10:15 PM 28.4 °F 16.7 °F 28.4 °F 100% 29.71 in 0.9 mi NE 15.7 mph - N/A Snow Snow
10:45 PM 28.4 °F 16.7 °F 26.6 °F 93% 29.71 in 0.9 mi NE 15.7 mph - N/A Snow Snow
11:15 PM 26.6 °F 14.4 °F 26.6 °F 100% 29.71 in 1.2 mi NE 15.7 mph - N/A Snow Snow
11:45 PM - - - N/A% - 3.7 mi North - - N/A   Unknown